This demonstration page uses our WeatherBlox Daily Observations layout. Learn more.

Left ArrowRight Arrow

44.8408, -93.29828

Hourly Observations for February 20, 2022

Temp ( °F °C ) Dew Point ( °F °C ) Humidity (%) Winds ( mph kmh ) Pressure ( in mb ) Visibility ( mi km ) Precip ( " mm )
12:53 am 00:53 Clear 28 -2.2 8 -13.3 43 43 SSW 16 26 29.73 1007 10 16 0.00 0.00
1:53 am 01:53 Mostly Clear 27 -2.8 10 -12.2 49 49 SSW 15 24 29.69 1006 10 16 0.00 0.00
2:53 am 02:53 Mostly Clear 28 -2.2 12 -11.1 51 51 SSW 13 20 29.64 1004 10 16 0.00 0.00
3:53 am 03:53 Mostly Clear 29 -1.7 15 -9.4 56 56 SSW 13 20 29.59 1002 10 16 0.00 0.00
4:53 am 04:53 Partly Cloudy 29 -1.7 16 -8.9 58 58 SSW 12 19 29.55 1001 10 16 0.00 0.00
5:53 am 05:53 Mostly Cloudy 30 -1.1 18 -7.8 61 61 SW 12 19 29.54 1000 10 16 0.00 0.00
6:53 am 06:53 Partly Cloudy 30 -1.1 19 -7.2 64 64 SW 14 22 29.52 1000 10 16 0.00 0.00
7:53 am 07:53 Partly Cloudy 32 0 20 -6.7 61 61 SW 10 17 29.55 1001 10 16 0.00 0.00
8:53 am 08:53 Partly Cloudy 33 0.6 21 -6.1 61 61 SW 13 20 29.56 1001 10 16 0.00 0.00
9:53 am 09:53 Partly Cloudy 38 3.3 23 -5 55 55 W 9 15 29.59 1002 10 16 0.00 0.00
10:53 am 10:53 Mostly Sunny 42 5.6 26 -3.3 53 53 WNW 16 26 29.61 1003 10 16 0.00 0.00
11:53 am 11:53 Mostly Sunny 43 6.1 28 -2.2 56 56 NW 20 31 29.65 1004 10 16 0.00 0.00
12:53 pm 12:53 Mostly Sunny 43 6.1 28 -2.2 56 56 NW 13 20 29.69 1006 10 16 0.00 0.00
1:53 pm 13:53 Mostly Sunny 43 6.1 28 -2.2 56 56 NNW 14 22 29.74 1007 10 16 0.00 0.00
2:53 pm 14:53 Partly Cloudy 42 5.6 27 -2.8 55 55 NNW 18 30 29.77 1008 10 16 0.00 0.00
3:53 pm 15:53 Partly Cloudy 42 5.6 27 -2.8 55 55 NNW 12 19 29.81 1010 10 16 0.00 0.00
4:53 pm 16:53 Mostly Cloudy 39 3.9 25 -3.9 57 57 N 8 13 29.85 1011 10 16 0.00 0.00
5:53 pm 17:53 Mostly Cloudy 36 2.2 25 -3.9 64 64 VRB 6 9 29.89 1012 10 16 0.00 0.00
6:53 pm 18:53 Mostly Cloudy 33 0.6 20 -6.7 58 58 NNE 12 19 29.95 1014 10 16 0.00 0.00
7:53 pm 19:53 Mostly Cloudy 30 -1.1 18 -7.8 61 61 N 17 28 29.97 1015 10 16 0.00 0.00
8:53 pm 20:53 Mostly Cloudy 29 -1.7 16 -8.9 58 58 NNE 15 24 30.00 1016 10 16 0.00 0.00
9:53 pm 21:53 Mostly Cloudy 28 -2.2 15 -9.4 58 58 NNE 12 19 30.04 1017 10 16 0.00 0.00
10:53 pm 22:53 Cloudy 27 -2.8 14 -10 58 58 NNE 12 19 30.06 1018 10 16 0.00 0.00
11:53 pm 23:53 Cloudy 25 -3.9 13 -10.6 60 60 NE 13 20 30.04 1017 10 16 0.00 0.00

Powered by AerisWeather